Terug naar catalogus

CZ-2D R/B

ActiefSSO
NORAD 54641·ROCKET BODY·🇨🇳 China

Gelanceerd Dec 8, 2022 vanaf Taiyuan Satellite Launch Center

Loading…

Volgende Passages (komende 24 uur)

TLE

VersSource: Space-Track

Epoch: Sep 14, 2026, 19:00 UTC

1 54641U 22165B   26257.79224341  .00000410  00000-0  78416-4 0  9995
2 54641  98.1633 200.4688 0031416 270.1037  89.6568 14.68841338201769

Volg CZ-2D R/B in realtime met AllMySat

Download on the App Store